Time,TemperatureF,DewpointF,PressureIn,WindDirection,WindDirectionDegrees,WindSpeedMPH,WindSpeedGustMPH,Humidity,HourlyPrecipIn,Conditions,Clouds,dailyrainin,SoftwareType,DateUTC
2015-01-30 00:01:00,32.3,30.5,30.14,WNW,303,0.0,3.0,93,0.00,,OVC070,0.14,VWS V14.01,2015-01-30 05:01:00,
2015-01-30 00:06:00,32.3,30.5,30.14,WNW,302,0.0,0.0,93,0.00,,OVC070,0.00,VWS V14.01,2015-01-30 05:06:00,
2015-01-30 00:11:00,32.3,30.8,30.15,WNW,302,0.0,0.0,94,0.00,,OVC070,0.00,VWS V14.01,2015-01-30 05:11:00,
2015-01-30 00:16:00,32.3,30.8,30.15,WNW,301,0.0,0.0,94,0.00,,OVC070,0.00,VWS V14.01,2015-01-30 05:16:00,
2015-01-30 00:22:00,32.3,30.8,30.15,WNW,301,0.0,0.0,94,0.00,,OVC070,0.00,VWS V14.01,2015-01-30 05:22:00,
2015-01-30 00:27:00,32.3,30.8,30.15,WNW,301,0.0,0.0,94,0.00,,OVC070,0.00,VWS V14.01,2015-01-30 05:27:00,
2015-01-30 00:32:00,32.2,30.7,30.15,WNW,295,0.0,0.0,94,0.00,,OVC070,0.00,VWS V14.01,2015-01-30 05:32:00,
2015-01-30 00:37:00,32.2,30.7,30.15,WNW,295,1.0,2.0,94,0.00,,OVC070,0.00,VWS V14.01,2015-01-30 05:37:00,
2015-01-30 00:42:00,32.2,30.7,30.15,WNW,295,0.0,1.0,94,0.00,,OVC070,0.00,VWS V14.01,2015-01-30 05:42:00,
2015-01-30 00:47:00,32.2,30.7,30.15,WNW,295,0.0,1.0,94,0.00,,OVC075,0.00,VWS V14.01,2015-01-30 05:47:00,
2015-01-30 00:52:00,32.1,30.6,30.15,WNW,295,0.0,1.0,94,0.00,,OVC075,0.00,VWS V14.01,2015-01-30 05:52:00,
2015-01-30 00:57:00,32.1,30.6,30.15,WNW,295,0.0,2.0,94,0.00,,OVC075,0.00,VWS V14.01,2015-01-30 05:57:00,
2015-01-30 01:02:00,32.0,30.5,30.15,WNW,295,0.0,1.0,94,0.00,,OVC075,0.00,VWS V14.01,2015-01-30 06:02:00,
2015-01-30 01:07:00,32.0,30.5,30.15,WNW,295,1.0,1.0,94,0.00,,OVC075,0.00,VWS V14.01,2015-01-30 06:07:00,
2015-01-30 01:12:00,32.0,30.5,30.15,WSW,247,0.0,1.0,94,0.00,,OVC075,0.00,VWS V14.01,2015-01-30 06:12:00,
2015-01-30 01:17:00,31.9,30.4,30.15,NW,306,0.0,5.0,94,0.00,,OVC075,0.00,VWS V14.01,2015-01-30 06:17:00,
2015-01-30 01:23:00,32.0,30.5,30.16,WSW,243,1.0,2.0,94,0.00,,OVC075,0.00,VWS V14.01,2015-01-30 06:23:00,
2015-01-30 01:28:00,32.0,30.5,30.15,WSW,244,1.0,2.0,94,0.00,,OVC075,0.00,VWS V14.01,2015-01-30 06:28:00,
2015-01-30 01:33:00,32.0,30.2,30.15,West,262,2.0,4.0,93,0.00,,OVC075,0.00,VWS V14.01,2015-01-30 06:33:00,
2015-01-30 01:38:00,32.0,30.2,30.16,West,270,1.0,1.0,93,0.00,,OVC075,0.00,VWS V14.01,2015-01-30 06:38:00,
2015-01-30 01:43:00,32.0,30.2,30.16,West,281,0.0,1.0,93,0.00,,OVC075,0.00,VWS V14.01,2015-01-30 06:43:00,
2015-01-30 01:48:00,32.0,30.2,30.16,West,264,0.0,0.0,93,0.00,,OVC065,0.00,VWS V14.01,2015-01-30 06:48:00,
2015-01-30 01:53:00,31.9,30.1,30.16,WNW,302,0.0,2.0,93,0.00,,OVC065,0.00,VWS V14.01,2015-01-30 06:53:00,
2015-01-30 01:58:00,31.9,30.1,30.16,WNW,300,0.0,1.0,93,0.00,,OVC065,0.00,VWS V14.01,2015-01-30 06:58:00,
2015-01-30 02:03:00,31.9,30.1,30.16,WNW,300,0.0,2.0,93,0.00,,OVC065,0.00,VWS V14.01,2015-01-30 07:03:00,
2015-01-30 02:08:00,31.9,30.1,30.16,WNW,300,1.0,2.0,93,0.00,,OVC065,0.00,VWS V14.01,2015-01-30 07:08:00,
2015-01-30 02:13:00,31.9,29.8,30.16,WNW,300,0.0,2.0,92,0.00,,OVC065,0.00,VWS V14.01,2015-01-30 07:13:00,
2015-01-30 02:19:00,31.9,29.8,30.16,West,271,0.0,3.0,92,0.00,,OVC065,0.00,VWS V14.01,2015-01-30 07:19:00,
2015-01-30 02:24:00,31.9,29.8,30.17,West,271,0.0,1.0,92,0.00,,OVC065,0.00,VWS V14.01,2015-01-30 07:24:00,
2015-01-30 02:29:00,31.9,29.6,30.17,West,271,0.0,2.0,91,0.00,,OVC065,0.00,VWS V14.01,2015-01-30 07:29:00,
2015-01-30 02:34:00,31.9,29.6,30.17,West,271,3.0,3.0,91,0.00,,OVC065,0.00,VWS V14.01,2015-01-30 07:34:00,
2015-01-30 02:39:00,31.9,29.6,30.17,West,271,0.0,1.0,91,0.00,,OVC065,0.00,VWS V14.01,2015-01-30 07:39:00,
2015-01-30 02:44:00,32.0,29.7,30.17,West,271,0.0,2.0,91,0.00,,OVC065,0.00,VWS V14.01,2015-01-30 07:44:00,
2015-01-30 02:49:00,32.0,29.7,30.17,West,271,0.0,2.0,91,0.00,,OVC060,0.00,VWS V14.01,2015-01-30 07:49:00,
2015-01-30 02:54:00,32.0,29.7,30.17,West,269,1.0,3.0,91,0.00,,OVC060,0.00,VWS V14.01,2015-01-30 07:54:00,
2015-01-30 02:59:00,32.0,29.7,30.17,West,269,0.0,2.0,91,0.00,,OVC060,0.00,VWS V14.01,2015-01-30 07:59:00,
2015-01-30 03:04:00,32.0,29.7,30.17,West,269,1.0,1.0,91,0.00,,OVC060,0.00,VWS V14.01,2015-01-30 08:04:00,
2015-01-30 03:09:00,32.0,29.7,30.17,West,277,1.0,3.0,91,0.00,,OVC060,0.00,VWS V14.01,2015-01-30 08:09:00,
2015-01-30 03:15:00,32.0,29.7,30.17,West,271,0.0,3.0,91,0.00,,OVC060,0.00,VWS V14.01,2015-01-30 08:15:00,
2015-01-30 03:20:00,32.0,29.4,30.17,West,271,1.0,2.0,90,0.00,,OVC060,0.00,VWS V14.01,2015-01-30 08:20:00,
2015-01-30 03:25:00,32.0,29.4,30.18,West,271,1.0,1.0,90,0.00,,OVC060,0.00,VWS V14.01,2015-01-30 08:25:00,
2015-01-30 03:30:00,32.0,29.4,30.18,WNW,285,0.0,3.0,90,0.00,,OVC060,0.00,VWS V14.01,2015-01-30 08:30:00,
2015-01-30 03:35:00,32.0,29.4,30.18,WNW,284,1.0,2.0,90,0.00,,OVC060,0.00,VWS V14.01,2015-01-30 08:35:00,
2015-01-30 03:40:00,32.0,29.4,30.18,WNW,303,0.0,2.0,90,0.00,,OVC060,0.00,VWS V14.01,2015-01-30 08:40:00,
2015-01-30 03:45:00,32.0,29.4,30.18,WNW,303,0.0,2.0,90,0.00,,OVC060,0.00,VWS V14.01,2015-01-30 08:45:00,
2015-01-30 03:50:00,32.0,29.4,30.18,WNW,303,1.0,2.0,90,0.00,,OVC060,0.00,VWS V14.01,2015-01-30 08:50:00,
2015-01-30 03:55:00,32.0,29.4,30.18,SW,230,0.0,4.0,90,0.00,,OVC060,0.00,VWS V14.01,2015-01-30 08:55:00,
2015-01-30 04:00:00,31.9,29.0,30.18,WNW,295,0.0,3.0,89,0.00,,OVC055,0.00,VWS V14.01,2015-01-30 09:00:00,
2015-01-30 04:05:00,31.9,29.0,30.18,WSW,244,1.0,3.0,89,0.00,,OVC055,0.00,VWS V14.01,2015-01-30 09:05:00,
2015-01-30 04:10:00,31.9,29.0,30.18,WNW,290,0.0,3.0,89,0.00,,OVC055,0.00,VWS V14.01,2015-01-30 09:10:00,
2015-01-30 04:16:00,31.9,29.0,30.18,WSW,248,4.0,7.0,89,0.00,,OVC055,0.00,VWS V14.01,2015-01-30 09:16:00,
2015-01-30 04:21:00,31.8,28.7,30.19,WNW,286,5.0,5.0,88,0.00,,OVC055,0.00,VWS V14.01,2015-01-30 09:21:00,
2015-01-30 04:26:00,31.1,28.2,30.20,NW,319,2.0,14.0,89,0.00,,OVC055,0.00,VWS V14.01,2015-01-30 09:26:00,
2015-01-30 04:31:00,30.0,27.7,30.20,WNW,282,3.0,8.0,91,0.00,,OVC055,0.00,VWS V14.01,2015-01-30 09:31:00,
2015-01-30 04:36:00,29.4,27.4,30.20,NW,309,1.0,6.0,92,0.00,,OVC055,0.00,VWS V14.01,2015-01-30 09:36:00,
2015-01-30 04:41:00,29.2,27.4,30.20,North,355,0.0,10.0,93,0.00,,OVC055,0.00,VWS V14.01,2015-01-30 09:41:00,
2015-01-30 04:46:00,29.2,27.4,30.21,NNW,332,0.0,6.0,93,0.00,,OVC060,0.00,VWS V14.01,2015-01-30 09:46:00,
2015-01-30 04:51:00,29.2,27.2,30.21,WNW,299,1.0,1.0,92,0.00,,OVC060,0.00,VWS V14.01,2015-01-30 09:51:00,
2015-01-30 04:56:00,29.3,27.0,30.21,NNW,329,2.0,2.0,91,0.00,,OVC060,0.00,VWS V14.01,2015-01-30 09:56:00,
2015-01-30 05:01:00,29.4,26.6,30.22,West,267,4.0,4.0,89,0.00,,OVC060,0.00,VWS V14.01,2015-01-30 10:01:00,
2015-01-30 05:06:00,29.5,26.4,30.22,NNW,348,2.0,2.0,88,0.00,,OVC060,0.00,VWS V14.01,2015-01-30 10:06:00,
2015-01-30 05:12:00,29.6,25.9,30.22,WNW,294,2.0,3.0,86,0.00,,OVC060,0.00,VWS V14.01,2015-01-30 10:12:00,
2015-01-30 05:17:00,29.7,25.8,30.22,WNW,300,1.0,1.0,85,0.00,,OVC060,0.00,VWS V14.01,2015-01-30 10:17:00,
2015-01-30 05:22:00,29.6,25.4,30.23,WNW,300,4.0,9.0,84,0.00,,OVC060,0.00,VWS V14.01,2015-01-30 10:22:00,
2015-01-30 05:27:00,29.6,24.8,30.23,NW,307,1.0,4.0,82,0.00,,OVC060,0.00,VWS V14.01,2015-01-30 10:27:00,
2015-01-30 05:32:00,29.6,24.8,30.23,North,360,3.0,4.0,82,0.00,,OVC060,0.00,VWS V14.01,2015-01-30 10:32:00,
2015-01-30 05:37:00,29.6,24.8,30.23,NNW,345,1.0,5.0,82,0.00,,OVC060,0.00,VWS V14.01,2015-01-30 10:37:00,
2015-01-30 05:42:00,29.5,24.7,30.24,NNW,340,6.0,8.0,82,0.00,,OVC060,0.00,VWS V14.01,2015-01-30 10:42:00,
2015-01-30 05:47:00,29.5,24.7,30.24,NNW,333,4.0,7.0,82,0.00,,OVC060,0.00,VWS V14.01,2015-01-30 10:47:00,
2015-01-30 05:52:00,29.4,24.6,30.24,WNW,298,2.0,7.0,82,0.00,,OVC060,0.00,VWS V14.01,2015-01-30 10:52:00,
2015-01-30 05:57:00,29.4,24.6,30.25,NNW,330,2.0,10.0,82,0.00,,OVC060,0.00,VWS V14.01,2015-01-30 10:57:00,
2015-01-30 06:02:00,29.3,24.8,30.25,North,355,2.0,5.0,83,0.00,,OVC060,0.00,VWS V14.01,2015-01-30 11:02:00,
2015-01-30 06:08:00,29.0,24.5,30.25,NNW,344,11.0,16.0,83,0.00,,OVC060,0.00,VWS V14.01,2015-01-30 11:08:00,
2015-01-30 06:13:00,28.6,24.1,30.26,NNW,332,6.0,14.0,83,0.00,,OVC060,0.00,VWS V14.01,2015-01-30 11:13:00,
2015-01-30 06:18:00,28.1,23.3,30.27,NNW,348,9.0,12.0,82,0.00,,OVC060,0.00,VWS V14.01,2015-01-30 11:18:00,
2015-01-30 06:23:00,27.7,22.6,30.27,West,263,6.0,15.0,81,0.00,,OVC060,0.00,VWS V14.01,2015-01-30 11:23:00,
2015-01-30 06:28:00,27.4,22.0,30.28,WNW,300,1.0,17.0,80,0.00,,OVC060,0.00,VWS V14.01,2015-01-30 11:28:00,
2015-01-30 06:33:00,27.1,21.2,30.28,NNW,342,9.0,15.0,78,0.00,,OVC060,0.00,VWS V14.01,2015-01-30 11:33:00,
2015-01-30 06:38:00,26.7,20.5,30.28,NNW,346,2.0,11.0,77,0.00,,OVC060,0.00,VWS V14.01,2015-01-30 11:38:00,
2015-01-30 06:43:00,26.5,20.6,30.28,North,5,4.0,8.0,78,0.00,,OVC060,0.00,VWS V14.01,2015-01-30 11:43:00,
2015-01-30 06:48:00,26.2,19.4,30.29,NW,311,7.0,11.0,75,0.00,,OVC065,0.00,VWS V14.01,2015-01-30 11:48:00,
2015-01-30 06:53:00,26.1,18.3,30.30,NNW,327,1.0,17.0,72,0.00,,OVC065,0.00,VWS V14.01,2015-01-30 11:53:00,
2015-01-30 06:58:00,26.0,17.9,30.30,West,272,3.0,5.0,71,0.00,,OVC065,0.00,VWS V14.01,2015-01-30 11:58:00,
2015-01-30 07:03:00,25.9,17.5,30.31,NNW,331,1.0,11.0,70,0.00,,OVC065,0.00,VWS V14.01,2015-01-30 12:03:00,
2015-01-30 07:09:00,25.8,17.7,30.31,NNW,331,1.0,11.0,71,0.00,,OVC065,0.00,VWS V14.01,2015-01-30 12:09:00,
2015-01-30 07:14:00,25.5,17.8,30.31,North,5,8.0,8.0,72,0.00,,OVC065,0.00,VWS V14.01,2015-01-30 12:14:00,
2015-01-30 07:19:00,25.2,17.1,30.31,WNW,295,2.0,8.0,71,0.00,,OVC065,0.00,VWS V14.01,2015-01-30 12:19:00,
2015-01-30 07:24:00,24.8,17.1,30.32,NNW,328,9.0,9.0,72,0.00,,OVC065,0.00,VWS V14.01,2015-01-30 12:24:00,
2015-01-30 07:29:00,24.6,16.5,30.32,NNW,334,6.0,13.0,71,0.00,,OVC065,0.00,VWS V14.01,2015-01-30 12:29:00,
2015-01-30 07:34:00,24.5,16.1,30.32,NNW,337,6.0,18.0,70,0.00,,OVC065,0.00,VWS V14.01,2015-01-30 12:34:00,
2015-01-30 07:39:00,24.5,16.5,30.33,NNW,338,7.0,15.0,71,0.00,,OVC065,0.00,VWS V14.01,2015-01-30 12:39:00,
2015-01-30 07:44:00,24.4,16.4,30.33,NNW,331,3.0,11.0,71,0.00,,OVC065,0.00,VWS V14.01,2015-01-30 12:44:00,
2015-01-30 07:49:00,24.2,16.2,30.33,NW,325,0.0,6.0,71,0.00,,OVC070,0.00,VWS V14.01,2015-01-30 12:49:00,
2015-01-30 07:54:00,23.9,16.2,30.34,NNW,332,2.0,8.0,72,0.00,,OVC070,0.00,VWS V14.01,2015-01-30 12:54:00,
2015-01-30 07:59:00,23.8,16.1,30.34,NW,323,2.0,15.0,72,0.00,,OVC070,0.00,VWS V14.01,2015-01-30 12:59:00,
2015-01-30 08:05:00,23.7,16.0,30.34,NNW,336,7.0,12.0,72,0.00,,OVC070,0.00,VWS V14.01,2015-01-30 13:05:00,
2015-01-30 08:10:00,23.6,16.2,30.35,NNW,346,2.0,10.0,73,0.00,,OVC070,0.00,VWS V14.01,2015-01-30 13:10:00,
2015-01-30 08:15:00,23.6,16.5,30.35,North,355,4.0,15.0,74,0.00,,OVC070,0.00,VWS V14.01,2015-01-30 13:15:00,
2015-01-30 08:20:00,23.5,16.8,30.35,NNW,346,5.0,9.0,75,0.00,,OVC070,0.00,VWS V14.01,2015-01-30 13:20:00,
2015-01-30 08:25:00,23.4,16.4,30.36,WNW,293,2.0,10.0,74,0.00,,OVC070,0.00,VWS V14.01,2015-01-30 13:25:00,
2015-01-30 08:30:00,23.3,16.2,30.36,NNW,328,4.0,15.0,74,0.00,,OVC070,0.00,VWS V14.01,2015-01-30 13:30:00,
2015-01-30 08:35:00,23.0,15.3,30.37,NNW,334,3.0,21.0,72,0.00,,OVC070,0.00,VWS V14.01,2015-01-30 13:35:00,
2015-01-30 08:40:00,22.8,15.1,30.37,North,355,9.0,13.0,72,0.00,,OVC070,0.00,VWS V14.01,2015-01-30 13:40:00,
2015-01-30 08:45:00,22.7,14.7,30.37,NNW,336,7.0,12.0,71,0.00,,OVC085,0.00,VWS V14.01,2015-01-30 13:45:00,
2015-01-30 08:50:00,22.5,14.5,30.37,NNW,340,11.0,13.0,71,0.00,,OVC085,0.00,VWS V14.01,2015-01-30 13:50:00,
2015-01-30 08:55:00,22.7,14.4,30.37,North,355,6.0,15.0,70,0.00,,OVC085,0.00,VWS V14.01,2015-01-30 13:55:00,
2015-01-30 09:00:00,23.0,14.4,30.38,NNW,336,9.0,19.0,69,0.00,,OVC085,0.00,VWS V14.01,2015-01-30 14:00:00,
2015-01-30 09:06:00,23.1,14.5,30.38,WNW,296,4.0,18.0,69,0.00,,OVC085,0.00,VWS V14.01,2015-01-30 14:06:00,
2015-01-30 09:11:00,23.3,15.0,30.38,WNW,296,1.0,11.0,70,0.00,,OVC085,0.00,VWS V14.01,2015-01-30 14:11:00,
2015-01-30 09:16:00,23.6,15.6,30.38,NNW,348,5.0,7.0,71,0.00,,OVC085,0.00,VWS V14.01,2015-01-30 14:16:00,
2015-01-30 09:21:00,23.6,15.3,30.39,North,360,3.0,9.0,70,0.00,,OVC085,0.00,VWS V14.01,2015-01-30 14:21:00,
2015-01-30 09:26:00,23.6,15.6,30.39,West,277,2.0,12.0,71,0.00,,OVC085,0.00,VWS V14.01,2015-01-30 14:26:00,
2015-01-30 09:31:00,23.7,15.4,30.39,NNW,339,2.0,12.0,70,0.00,,OVC085,0.00,VWS V14.01,2015-01-30 14:31:00,
2015-01-30 09:36:00,23.7,15.4,30.39,North,349,7.0,12.0,70,0.00,,OVC085,0.00,VWS V14.01,2015-01-30 14:36:00,
2015-01-30 09:41:00,24.0,16.0,30.39,North,360,6.0,11.0,71,0.00,,OVC085,0.00,VWS V14.01,2015-01-30 14:41:00,
2015-01-30 09:46:00,23.9,15.6,30.40,NW,308,7.0,16.0,70,0.00,,CLR,0.00,VWS V14.01,2015-01-30 14:46:00,
2015-01-30 09:51:00,23.9,15.6,30.40,NNW,337,5.0,12.0,70,0.00,,CLR,0.00,VWS V14.01,2015-01-30 14:51:00,
2015-01-30 09:56:00,24.4,16.4,30.40,NW,307,0.0,1.0,71,0.00,,CLR,0.00,VWS V14.01,2015-01-30 14:56:00,